Location: Kawakawa
(35.3830°S, 174.0670°E)
Time: 18:25:02
(UTC+13:00)

Timation 1 Rocket - Pass Details

Date: 24 January 2019
Orbit: 900 x 907 km, 70.0° (Epoch: 22 February)

Event Time Altitude Azimuth Distance (km) Brightness Sun altitude
Rises 23:22:51 0° 205° (SSW) 3,563 8.7 -27.0°
Reaches altitude 10° 23:25:23 10° 206° (SSW) 2,614 7.7 -27.3°
Maximum altitude 23:31:25 75° 290° (WNW) 944 4.3 -27.9°
Enters shadow 23:31:48 72° 325° (NW) 956 4.3 -28.0°
